Location: LDNL
(36.4545°S, 141.6685°E)
Time: 11:42:15
(UTC+10:00)

A-11 Canister half - Pass Details

Date: 12 August 2022
Orbit: 1524 x 1684 km, 47.3° (Epoch: 26 September)

Event Time Altitude Azimuth Distance (km) Brightness Sun altitude
Rises 17:05:48 0° 314° (NW) 4,714 13.2 8.8°
Reaches altitude 10° 17:08:52 10° 315° (NW) 3,720 12.7 8.2°
Maximum altitude 17:18:12 75° 39° (NE) 1,578 9.2 6.5°
Drops below altitude 10° 17:27:31 10° 122° (ESE) 3,714 10.4 4.8°
Sets 17:30:35 0° 123° (ESE) 4,707 10.9 4.2°
